Weather History for Asahikawa Airport, Japan

Change the Weather History Date:

Saturday, December 8, 2012

  Actual Average Record
Temperature  
Mean Temperature 22 °F -  
Max Temperature 26 °F 24 °F 42 °F (1998)
Min Temperature 17 °F 13 °F 1 °F (2011)
Degree Days  
Heating Degree Days 44    
Moisture  
Dew Point 17 °F    
Average Humidity 83    
Maximum Humidity 93    
Minimum Humidity 59    
Precipitation  
Precipitation 0.00 in - - ()
Sea Level Pressure  
Sea Level Pressure 29.49 in    
Wind  
Wind Speed 9 mph ()    
Max Wind Speed 15 mph    
Max Gust Speed -    
Visibility 2.9 miles    
Events Snow    
Averages and records for this station are not official NWS values.
T = Trace of Precipitation, MM = Missing Value Source: Averaged Metar Reports

Daily Weather History Graph

Daily Weather History Graph

Search for Another Location

Airport:

Trip Planner

Search our weather history database for the weather conditions in past years. The results will help you decide how hot, cold, wet, or windy it might be!

Date:

Astronomy

Dec. 08, 2012 Rise Set
Actual Time 6:50 AM JST 3:53 PM JST
Civil Twilight 6:18 AM JST 4:25 PM JST
Nautical Twilight 5:42 AM JST 5:01 PM JST
Astronomical Twilight 5:07 AM JST 5:36 PM JST
Moon 12:23 AM JST (12/8) 12:10 PM JST (12/8)
Length of Visible Light 10h 07m
Length of Day
9h 02m
Waning Crescent, 34% of the Moon is Illuminated
Dec 8
Waning Crescent
Dec 13
New
Dec 20
First Quarter
Dec 28
Full
Jan 5
Last Quarter

Hourly Weather History & Observations

Time (JST) Temp. Windchill Dew Point Humidity Pressure Visibility Wind Dir Wind Speed Gust Speed Precip Events Conditions
7:00 AM 17.6 °F 4.3 °F 6.8 °F 63% 29.68 in 6.2 mi South 12.7 mph - N/A   Partly Cloudy
8:00 AM 17.6 °F 3.2 °F 8.6 °F 68% 29.68 in 6.2 mi South 15.0 mph - N/A   Partly Cloudy
9:00 AM 19.4 °F 6.6 °F 10.4 °F 68% 29.65 in - South 12.7 mph - N/A   Clear
10:00 AM 21.2 °F 11.7 °F 12.2 °F 68% 29.62 in - South 8.1 mph - N/A   Clear
11:00 AM 26.6 °F 18.2 °F 14.0 °F 59% 29.59 in - South 8.1 mph - N/A   Clear
12:00 PM 26.6 °F 22.6 °F 14.0 °F 59% 29.53 in - SE 3.5 mph - N/A   Clear
1:00 PM 23.0 °F 11.7 °F 15.8 °F 74% 29.47 in 6.2 mi NNW 11.5 mph - N/A   Scattered Clouds
2:00 PM 23.0 °F 17.0 °F 15.8 °F 74% 29.47 in 6.2 mi WNW 4.6 mph - N/A   Mostly Cloudy
2:40 PM 23.0 °F 15.8 °F 15.8 °F 74% 29.50 in - SSW 5.8 mph - N/A Snow Light Snow Showers
3:00 PM 23.0 °F 14.7 °F 17.6 °F 80% 29.50 in 2.5 mi SSW 6.9 mph - N/A Snow Light Snow Showers
3:11 PM 21.2 °F 14.9 °F 17.6 °F 86% 29.50 in 1.4 mi WSW 4.6 mph - N/A Snow Light Snow Showers
3:13 PM 21.2 °F 14.9 °F 17.6 °F 86% 29.50 in 0.9 mi WSW 4.6 mph - N/A Snow Light Snow Showers
3:32 PM 21.2 °F 16.4 °F 19.4 °F 93% 29.47 in 0.6 mi West 3.5 mph - N/A Snow Snow Showers
3:38 PM 21.2 °F 14.9 °F 19.4 °F 93% 29.47 in 0.4 mi WNW 4.6 mph - N/A Snow Snow Showers
3:43 PM 21.2 °F 13.6 °F 19.4 °F 93% 29.47 in 0.6 mi NW 5.8 mph - N/A Snow Snow Showers
4:00 PM 21.2 °F 10.1 °F 19.4 °F 93% 29.47 in 0.6 mi NNW 10.4 mph - N/A Snow Snow Showers
4:11 PM 21.2 °F 8.3 °F 19.4 °F 93% 29.44 in 0.9 mi NNW 13.8 mph - N/A Snow Light Snow Showers
4:17 PM 21.2 °F 8.9 °F 19.4 °F 93% 29.44 in 1.0 mi NNW 12.7 mph - N/A Snow Light Snow Showers
4:23 PM 21.2 °F 8.3 °F 19.4 °F 93% 29.44 in 1.5 mi NNW 13.8 mph - N/A Snow Light Snow Showers
4:31 PM 21.2 °F 8.3 °F 19.4 °F 93% 29.44 in - NNW 13.8 mph - N/A Snow Light Snow Showers
4:39 PM 21.2 °F 8.9 °F 19.4 °F 93% 29.44 in 3.1 mi NNW 12.7 mph - N/A Snow Light Snow Showers
5:00 PM 21.2 °F 9.5 °F 19.4 °F 93% 29.42 in 5.0 mi NNW 11.5 mph - N/A Snow Light Snow Showers
6:00 PM 21.2 °F 8.3 °F 19.4 °F 93% 29.39 in 6.2 mi NW 13.8 mph - N/A Snow Light Snow Showers
7:00 PM 23.0 °F 11.1 °F 17.6 °F 80% 29.39 in 6.2 mi WNW 12.7 mph - N/A Snow Light Snow Showers
7:20 PM 23.0 °F 11.7 °F 19.4 °F 86% 29.39 in - WNW 11.5 mph - N/A Snow Light Snow Showers
7:30 PM 21.2 °F 8.9 °F 19.4 °F 93% 29.39 in - WNW 12.7 mph - N/A Snow Light Snow Showers
8:00 PM 21.2 °F 11.7 °F 19.4 °F 93% 29.42 in 1.1 mi WNW 8.1 mph - N/A Snow Light Snow Showers
8:05 PM 21.2 °F 12.6 °F 19.4 °F 93% 29.42 in 0.9 mi West 6.9 mph - N/A Snow Light Snow Showers